Jefferson, NC

3:23 PM EDT on October 18, 2019 (GMT -0400)
Ashe County

Weather History for KGEV - August, 2019

Change the Weather History Date:

Sunday, August 18, 2019

  Actual Average Record
Temperature  
Mean Temperature 72 °F -  
Max Temperature 83 °F 79 °F 93 °F (1988)
Min Temperature 60 °F 58 °F 43 °F (1976)
Cooling Degree Days 6    
Growing Degree Days 22 (Base 50)    
Moisture  
Dew Point 64 °F    
Average Humidity 79    
Maximum Humidity 99    
Minimum Humidity 43    
Precipitation  
Precipitation 0.00 in - - ()
Sea Level Pressure  
Sea Level Pressure 30.16 in    
Wind  
Wind Speed 1 mph ()    
Max Wind Speed 8 mph    
Max Gust Speed -    
Visibility 9.2 miles    
Events Fog , Thunderstorm    
Averages and records for this station are not official NWS values.
T = Trace of Precipitation, MM = Missing Value Source: Averaged Metar Reports

Daily Weather History Graph

Daily Weather History Graph

Search for Another Location

Airport or City:

Astronomy

Aug. 18, 2019 Rise Set
Actual Time 6:45 AM EDT 8:12 PM EDT
Civil Twilight 6:18 AM EDT 8:39 PM EDT
Nautical Twilight 5:45 AM EDT 9:12 PM EDT
Astronomical Twilight 5:11 AM EDT 9:46 PM EDT
Moon 10:11 PM EDT 9:25 AM EDT
Length of Visible Light 14h 21m
Length of Day
13h 27m
Waning Gibbous, 91% of the Moon is Illuminated
Aug 18
Waning Gibbous
Aug 23
Last Quarter
Aug 30
New
Sep 5
First Quarter
Sep 14
Full

Hourly Weather History & Observations

Time (EDT) Temp. Heat Index Dew Point Humidity Pressure Visibility Wind Dir Wind Speed Gust Speed Precip Events Conditions
12:15 AM 68.9 °F - 61.7 °F 78% 30.18 in 10.0 mi Calm Calm - N/A   Clear
12:35 AM 66.0 °F - 62.6 °F 89% 30.17 in 10.0 mi Calm Calm - N/A   Clear
12:55 AM 66.9 °F - 62.2 °F 85% 30.17 in 10.0 mi Calm Calm - N/A   Clear
1:15 AM 66.6 °F - 61.9 °F 85% 30.17 in 10.0 mi ENE 5.8 mph - N/A   Clear
1:35 AM 69.1 °F - 62.1 °F 78% 30.16 in 10.0 mi ENE 3.5 mph - N/A   Clear
1:55 AM 62.1 °F - 61.9 °F 99% 30.16 in 0.5 mi Calm Calm - N/A Fog Fog
2:15 AM 63.9 °F - 62.2 °F 94% 30.15 in 10.0 mi ENE 3.5 mph - N/A   Scattered Clouds
2:35 AM 64.8 °F - 62.2 °F 92% 30.15 in 10.0 mi Calm Calm - N/A   Clear
2:55 AM 64.2 °F - 62.1 °F 93% 30.15 in 10.0 mi Calm Calm - N/A   Clear
3:15 AM 62.2 °F - 61.5 °F 97% 30.14 in 5.0 mi Calm Calm - N/A   Clear
3:35 AM 63.7 °F - 61.5 °F 93% 30.14 in 10.0 mi Calm Calm - N/A   Clear
3:55 AM 63.0 °F - 61.9 °F 96% 30.14 in 10.0 mi Calm Calm - N/A   Clear
4:15 AM 62.2 °F - 61.7 °F 98% 30.14 in 10.0 mi Calm Calm - N/A   Clear
4:35 AM 62.1 °F - 61.2 °F 97% 30.13 in 10.0 mi Calm Calm - N/A   Clear
4:55 AM 61.9 °F - 61.2 °F 97% 30.13 in 10.0 mi Calm Calm - N/A   Clear
5:15 AM 61.3 °F - 61.2 °F 99% 30.13 in 5.0 mi Calm Calm - N/A   Scattered Clouds
5:35 AM 61.9 °F - 61.5 °F 99% 30.13 in 10.0 mi Calm Calm - N/A   Clear
5:55 AM 62.1 °F - 61.3 °F 97% 30.13 in 10.0 mi Calm Calm - N/A   Clear
6:15 AM 60.1 °F - 59.7 °F 99% 30.14 in 1.0 mi Calm Calm - N/A   Mostly Cloudy
6:35 AM 60.3 °F - 59.9 °F 99% 30.14 in 5.0 mi Calm Calm - N/A   Clear
6:55 AM 61.0 °F - 60.8 °F 99% 30.15 in 5.0 mi Calm Calm - N/A   Scattered Clouds
7:15 AM 61.3 °F - 61.0 °F 99% 30.15 in 2.0 mi Calm Calm - N/A   Clear
7:35 AM 61.0 °F - 60.6 °F 99% 30.16 in 4.0 mi Calm Calm - N/A   Clear
7:55 AM 62.2 °F - 61.7 °F 98% 30.17 in 4.0 mi Calm Calm - N/A   Clear
8:15 AM 63.1 °F - 62.1 °F 96% 30.17 in 10.0 mi Calm Calm - N/A   Clear
8:35 AM 64.4 °F - 63.0 °F 95% 30.17 in 10.0 mi Calm Calm - N/A   Clear
8:55 AM 66.0 °F - 63.7 °F 92% 30.17 in 10.0 mi Calm Calm - N/A   Clear
9:15 AM 67.6 °F - 64.4 °F 89% 30.17 in 10.0 mi Calm Calm - N/A   Clear
9:35 AM 70.2 °F - 65.3 °F 85% 30.18 in 10.0 mi Calm Calm - N/A   Clear
9:55 AM 71.8 °F - 66.9 °F 85% 30.18 in 10.0 mi Calm Calm - N/A   Clear
10:15 AM 73.9 °F - 67.6 °F 81% 30.18 in 10.0 mi Calm Calm - N/A   Clear
10:35 AM 75.0 °F - 67.8 °F 78% 30.19 in 10.0 mi Calm Calm - N/A   Clear
10:55 AM 78.3 °F - 63.0 °F 59% 30.20 in 10.0 mi ENE 4.6 mph - N/A   Clear
11:15 AM 79.0 °F - 61.9 °F 56% 30.20 in 10.0 mi ENE 8.1 mph - N/A   Clear
11:35 AM 79.0 °F - 63.0 °F 58% 30.20 in 10.0 mi ENE 4.6 mph - N/A   Scattered Clouds
11:55 AM 79.5 °F - 62.6 °F 56% 30.20 in 10.0 mi ENE 3.5 mph - N/A   Scattered Clouds
12:15 PM 79.5 °F - 61.3 °F 54% 30.20 in 10.0 mi ENE 6.9 mph - N/A   Scattered Clouds
12:35 PM 79.7 °F - 61.5 °F 54% 30.20 in 10.0 mi ENE 8.1 mph - N/A   Mostly Cloudy
12:55 PM 81.0 °F 82.2 °F 62.8 °F 54% 30.19 in 10.0 mi ENE 4.6 mph - N/A   Scattered Clouds
1:15 PM 79.2 °F - 62.4 °F 56% 30.19 in 10.0 mi ENE 5.8 mph - N/A   Mostly Cloudy
1:35 PM 81.7 °F 82.9 °F 63.0 °F 53% 30.19 in 10.0 mi ENE 5.8 mph - N/A   Mostly Cloudy
1:55 PM 81.1 °F 82.0 °F 61.5 °F 51% 30.18 in 10.0 mi ENE 3.5 mph - N/A   Scattered Clouds
2:15 PM 80.8 °F 81.6 °F 61.2 °F 51% 30.18 in 10.0 mi Calm Calm - N/A   Scattered Clouds
2:35 PM 82.6 °F 83.8 °F 63.1 °F 52% 30.18 in 10.0 mi ENE 5.8 mph - N/A   Mostly Cloudy
2:55 PM 80.4 °F 81.5 °F 61.9 °F 53% 30.18 in 10.0 mi Calm Calm - N/A   Overcast
3:15 PM 82.8 °F 83.6 °F 62.6 °F 50% 30.17 in 10.0 mi ENE 3.5 mph - N/A   Scattered Clouds
3:35 PM 83.5 °F 83.2 °F 58.6 °F 43% 30.16 in 10.0 mi ENE 8.1 mph - N/A Thunderstorm Scattered Clouds
3:55 PM 80.4 °F 81.7 °F 63.1 °F 55% 30.17 in 10.0 mi ENE 8.1 mph - N/A Thunderstorm Scattered Clouds
4:15 PM 76.1 °F - 65.3 °F 69% 30.17 in 10.0 mi Calm Calm - N/A   Mostly Cloudy
4:35 PM 77.5 °F - 65.1 °F 65% 30.16 in 10.0 mi ENE 4.6 mph - N/A   Mostly Cloudy
4:55 PM 79.0 °F - 66.0 °F 64% 30.16 in 10.0 mi ENE 4.6 mph - N/A   Clear
5:15 PM 78.8 °F - 67.1 °F 67% 30.15 in 10.0 mi ENE 3.5 mph - N/A   Clear
5:35 PM 77.4 °F - 66.4 °F 69% 30.15 in 10.0 mi ENE 3.5 mph - N/A   Clear
5:55 PM 77.2 °F - 66.9 °F 71% 30.15 in 10.0 mi ENE 3.5 mph - N/A   Clear
6:15 PM 77.0 °F - 67.3 °F 72% 30.14 in 10.0 mi Calm Calm - N/A   Clear
6:35 PM 77.0 °F - 67.5 °F 72% 30.14 in 10.0 mi Calm Calm - N/A   Clear
6:55 PM 76.1 °F - 67.6 °F 75% 30.14 in 10.0 mi ENE 3.5 mph - N/A   Clear
7:15 PM 75.2 °F - 68.0 °F 78% 30.15 in 10.0 mi ENE 3.5 mph - N/A   Clear
7:35 PM 74.3 °F - 67.8 °F 80% 30.15 in 10.0 mi Calm Calm - N/A   Clear
7:55 PM 73.6 °F - 67.5 °F 81% 30.15 in 10.0 mi ENE 3.5 mph - N/A   Clear
8:15 PM 73.4 °F - 68.0 °F 83% 30.16 in 10.0 mi Calm Calm - N/A   Clear
8:35 PM 72.1 °F - 68.0 °F 87% 30.15 in 10.0 mi Calm Calm - N/A   Scattered Clouds
8:55 PM 73.0 °F - 67.1 °F 82% 30.15 in 10.0 mi Calm Calm - N/A   Clear
9:15 PM 73.6 °F - 66.9 °F 80% 30.16 in 10.0 mi ENE 4.6 mph - N/A   Clear
9:35 PM 72.7 °F - 66.2 °F 80% 30.16 in 10.0 mi ENE 4.6 mph - N/A   Clear
9:55 PM 70.3 °F - 66.0 °F 86% 30.16 in 10.0 mi Calm Calm - N/A   Clear
10:15 PM 70.5 °F - 67.3 °F 89% 30.17 in 10.0 mi Calm Calm - N/A   Clear
10:35 PM 71.4 °F - 66.4 °F 84% 30.17 in 10.0 mi Calm Calm - N/A   Clear
10:55 PM 68.2 °F - 66.7 °F 95% 30.17 in 10.0 mi Calm Calm - N/A   Clear
11:15 PM 69.1 °F - 66.0 °F 90% 30.17 in 10.0 mi Calm Calm - N/A   Clear
11:35 PM 69.1 °F - 66.7 °F 92% 30.17 in 10.0 mi Calm Calm - N/A   Clear
11:55 PM 68.9 °F - 66.4 °F 92% 30.17 in 10.0 mi Calm Calm - N/A   Clear